Location: Unspecified
(0.0000°N, 0.0000°E)
Time: 18:51:03
(UTC+00:00)

deb Briz - Pass Details

Date: 19 February 2026
Orbit: 1858 x 2172 km, 64.9° (Epoch: 11 March)

Event Time Altitude Azimuth Distance (km) Brightness Sun altitude
Rises 02:49:31 0° 179° (S) 5,468 ? -49.7°
Reaches altitude 10° 02:53:28 10° 169° (S) 4,511 ? -48.8°
Maximum altitude 03:03:26 31° 111° (ESE) 3,197 ? -46.4°
Drops below altitude 10° 03:13:37 10° 53° (NE) 4,670 ? -44.0°
Sets 03:17:42 0° 44° (NE) 5,686 ? -43.0°
